| time (UTC) | temp F | wind direction | speed knots | gust knots | rain 1hr in | rain 24hr in | rain mn in | humidity % | barometer mb |
| 20260509043431 | 51 | 146 | 0.0 | 0.9 | 0.00 | 0.01 | 0.00 | 90 | 1008.2 |
| 20260509041932 | 52 | 146 | 0.0 | 0.9 | 0.00 | 0.01 | 0.00 | 90 | 1008.2 |
| 20260509040430 | 52 | 146 | 0.0 | 1.7 | 0.00 | 0.01 | 0.00 | 90 | 1008.2 |
| 20260509034931 | 52 | 178 | 1.7 | 0.9 | 0.00 | 0.01 | 0.01 | 90 | 1008.4 |
| 20260509033431 | 52 | 163 | 1.7 | 3.5 | 0.00 | 0.01 | 0.01 | 90 | 1008.6 |
| 20260509031930 | 53 | 185 | 1.7 | 0.0 | 0.00 | 0.01 | 0.01 | 90 | 1008.6 |
| 20260509030452 | 53 | 238 | 1.7 | 0.9 | 0.00 | 0.01 | 0.01 | 90 | 1008.6 |
| 20260509024931 | 53 | 246 | 1.7 | 1.7 | 0.00 | 0.01 | 0.01 | 90 | 1008.8 |
| 20260509023431 | 53 | 178 | 1.7 | 4.3 | 0.00 | 0.01 | 0.01 | 90 | 1008.8 |
| 20260509021953 | 53 | 156 | 1.7 | 3.5 | 0.00 | 0.01 | 0.01 | 90 | 1008.8 |
| 20260509020452 | 53 | 140 | 1.7 | 0.0 | 0.00 | 0.01 | 0.01 | 89 | 1008.8 |
| 20260509014952 | 54 | 140 | 1.7 | 0.0 | 0.00 | 0.01 | 0.01 | 89 | 1008.8 |
| 20260509013431 | 54 | 140 | 1.7 | 0.0 | 0.00 | 0.01 | 0.01 | 87 | 1008.7 |
| 20260509011931 | 55 | 140 | 1.7 | 0.9 | 0.00 | 0.01 | 0.01 | 86 | 1008.6 |
| 20260509010513 | 56 | 140 | 1.7 | 0.0 | 0.00 | 0.01 | 0.01 | 84 | 1008.4 |
| 20260509004931 | 57 | 140 | 1.7 | 0.9 | 0.00 | 0.01 | 0.01 | 82 | 1008.4 |
| 20260509003432 | 59 | 140 | 1.7 | 0.9 | 0.00 | 0.05 | 0.01 | 80 | 1008.3 |
| 20260509001952 | 60 | 140 | 1.7 | 1.7 | 0.00 | 0.08 | 0.01 | 77 | 1008.1 |
| 20260509000432 | 61 | 181 | 1.7 | 3.5 | 0.00 | 0.11 | 0.01 | 74 | 1008.1 |
| 20260508234932 | 62 | 149 | 1.7 | 3.5 | 0.00 | 0.11 | 0.01 | 71 | 1008.3 |
| 20260508233431 | 62 | 219 | 1.7 | 4.3 | 0.00 | 0.11 | 0.01 | 71 | 1008.3 |
| 20260508231931 | 62 | 221 | 1.7 | 5.2 | 0.00 | 0.11 | 0.01 | 73 | 1008.4 |
| 20260508230432 | 63 | 238 | 1.7 | 5.2 | 0.00 | 0.11 | 0.01 | 70 | 1008.3 |
| 20260508224931 | 62 | 205 | 1.7 | 5.2 | 0.00 | 0.11 | 0.01 | 69 | 1008.6 |
| 20260508223453 | 62 | 164 | 1.7 | 5.2 | 0.00 | 0.11 | 0.01 | 69 | 1008.5 |
| 20260508221953 | 62 | 195 | 1.7 | 3.5 | 0.00 | 0.11 | 0.01 | 71 | 1008.6 |
| 20260508220431 | 62 | 171 | 1.7 | 4.3 | 0.00 | 0.11 | 0.01 | 71 | 1008.6 |
| 20260508214952 | 62 | 271 | 1.7 | 6.1 | 0.00 | 0.11 | 0.01 | 70 | 1008.4 |
| 20260508213431 | 63 | 150 | 1.7 | 6.1 | 0.00 | 0.11 | 0.01 | 70 | 1008.7 |
| 20260508211952 | 62 | 264 | 1.7 | 5.2 | 0.00 | 0.11 | 0.01 | 70 | 1008.8 |
| 20260508210432 | 61 | 261 | 1.7 | 7.0 | 0.00 | 0.11 | 0.01 | 71 | 1008.8 |
| 20260508204953 | 61 | 166 | 1.7 | 7.0 | 0.00 | 0.11 | 0.01 | 70 | 1009.1 |
| 20260508203432 | 62 | 149 | 1.7 | 9.6 | 0.00 | 0.11 | 0.01 | 69 | 1009.2 |
| 20260508201932 | 62 | 163 | 1.7 | 8.7 | 0.00 | 0.11 | 0.01 | 69 | 1009.3 |
| 20260508200452 | 62 | 272 | 1.7 | 9.6 | 0.00 | 0.11 | 0.01 | 70 | 1009.5 |
| 20260508195014 | 63 | 284 | 1.7 | 7.0 | 0.00 | 0.11 | 0.01 | 69 | 1009.7 |
| 20260508193431 | 62 | 187 | 1.7 | 7.0 | 0.00 | 0.11 | 0.01 | 68 | 1009.9 |
| 20260508191931 | 62 | 161 | 1.7 | 7.0 | 0.00 | 0.11 | 0.01 | 68 | 1010.1 |
| 20260508190431 | 61 | 160 | 1.7 | 10.4 | 0.00 | 0.11 | 0.01 | 73 | 1010.3 |
| 20260508184931 | 62 | 239 | 0.9 | 8.7 | 0.00 | 0.11 | 0.01 | 72 | 1010.6 |
| 20260508183453 | 62 | 159 | 0.9 | 7.8 | 0.00 | 0.11 | 0.01 | 70 | 1010.7 |
| 20260508181931 | 62 | 182 | 0.9 | 7.0 | 0.00 | 0.11 | 0.01 | 71 | 1010.7 |
| 20260508180453 | 61 | 173 | 0.9 | 7.8 | 0.00 | 0.11 | 0.01 | 69 | 1011.0 |
| 20260508175015 | 62 | 164 | 0.9 | 7.0 | 0.00 | 0.11 | 0.01 | 69 | 1011.1 |
| 20260508173432 | 61 | 215 | 0.9 | 5.2 | 0.00 | 0.11 | 0.01 | 70 | 1011.3 |
| 20260508171932 | 62 | 202 | 0.9 | 7.0 | 0.00 | 0.11 | 0.01 | 66 | 1011.7 |
| 20260508170432 | 61 | 169 | 0.9 | 7.8 | 0.00 | 0.11 | 0.01 | 64 | 1011.9 |
| 20260508164932 | 60 | 161 | 0.9 | 7.0 | 0.00 | 0.11 | 0.01 | 62 | 1012.1 |
| 20260508163453 | 61 | 171 | 0.9 | 4.3 | 0.00 | 0.11 | 0.01 | 55 | 1012.2 |
| 20260508161953 | 61 | 155 | 0.9 | 7.0 | 0.00 | 0.11 | 0.01 | 67 | 1012.5 |
| 20260508160433 | 60 | 188 | 0.9 | 6.1 | 0.00 | 0.11 | 0.01 | 71 | 1012.6 |
| 20260508154953 | 59 | 165 | 0.9 | 7.0 | 0.00 | 0.11 | 0.01 | 77 | 1012.6 |
| 20260508153432 | 58 | 141 | 0.9 | 6.1 | 0.00 | 0.11 | 0.01 | 80 | 1012.7 |
| 20260508151932 | 57 | 211 | 0.0 | 6.1 | 0.00 | 0.11 | 0.01 | 80 | 1012.8 |
| 20260508150432 | 56 | 194 | 0.0 | 5.2 | 0.00 | 0.11 | 0.01 | 80 | 1012.6 |
| 20260508144933 | 56 | 155 | 0.0 | 5.2 | 0.00 | 0.11 | 0.01 | 81 | 1012.6 |
| 20260508143514 | 55 | 184 | 0.0 | 6.1 | 0.00 | 0.11 | 0.01 | 82 | 1012.8 |
| 20260508141932 | 53 | 286 | 0.0 | 4.3 | 0.00 | 0.11 | 0.01 | 85 | 1012.9 |
| 20260508140433 | 53 | 159 | 0.0 | 6.1 | 0.00 | 0.11 | 0.01 | 88 | 1013.1 |
| 20260508134933 | 51 | 174 | 0.0 | 6.1 | 0.00 | 0.11 | 0.01 | 92 | 1013.3 |
| 20260508133433 | 50 | 196 | 0.0 | 3.5 | 0.00 | 0.11 | 0.01 | 94 | 1013.4 |
| 20260508131932 | 49 | 207 | 0.0 | 2.6 | 0.00 | 0.11 | 0.01 | 94 | 1013.3 |
| 20260508130433 | 49 | 155 | 0.0 | 0.9 | 0.00 | 0.11 | 0.01 | 95 | 1013.3 |
| 20260508125014 | 48 | 155 | 0.0 | 0.9 | 0.00 | 0.11 | 0.01 | 95 | 1013.3 |
| 20260508123454 | 48 | 309 | 0.0 | 0.9 | 0.00 | 0.11 | 0.01 | 95 | 1013.2 |
| 20260508121953 | 47 | 207 | 0.0 | 0.9 | 0.00 | 0.11 | 0.01 | 95 | 1013.2 |
| 20260508120432 | 46 | 207 | 0.0 | 0.0 | 0.00 | 0.11 | 0.01 | 96 | 1013.2 |
| 20260508114932 | 44 | 207 | 0.0 | 0.0 | 0.00 | 0.11 | 0.01 | 95 | 1013.0 |
| 20260508113433 | 43 | 207 | 0.0 | 0.0 | 0.00 | 0.11 | 0.01 | 95 | 1012.8 |
| 20260508111933 | 42 | 207 | 0.0 | 0.9 | 0.01 | 0.11 | 0.01 | 94 | 1013.0 |
| 20260508110453 | 42 | 207 | 0.0 | 0.0 | 0.01 | 0.11 | 0.01 | 94 | 1013.1 |
| 20260508104934 | 42 | 207 | 0.0 | 0.0 | 0.01 | 0.11 | 0.01 | 94 | 1012.8 |
| 20260508103514 | 43 | 207 | 0.0 | 0.9 | 0.01 | 0.11 | 0.01 | 94 | 1012.8 |
| 20260508101933 | 43 | 207 | 0.0 | 0.9 | 0.00 | 0.10 | 0.00 | 94 | 1012.8 |
| 20260508100434 | 43 | 207 | 0.0 | 1.7 | 0.00 | 0.10 | 0.00 | 94 | 1012.8 |
| 20260508094934 | 43 | 207 | 0.0 | 0.9 | 0.00 | 0.10 | 0.00 | 94 | 1012.8 |
| 20260508093515 | 43 | 207 | 0.0 | 1.7 | 0.00 | 0.10 | 0.00 | 95 | 1012.8 |
| 20260508091932 | 42 | 176 | 0.0 | 1.7 | 0.00 | 0.10 | 0.00 | 94 | 1012.9 |
| 20260508090434 | 41 | 133 | 0.0 | 0.0 | 0.00 | 0.10 | 0.00 | 94 | 1012.9 |
| 20260508084954 | 41 | 132 | 0.0 | 0.0 | 0.00 | 0.10 | 0.00 | 94 | 1012.9 |
| 20260508083454 | 41 | 132 | 0.0 | 0.0 | 0.00 | 0.10 | 0.00 | 93 | 1013.0 |
| 20260508081934 | 41 | 132 | 0.0 | 0.0 | 0.00 | 0.10 | 0.00 | 93 | 1012.9 |
| 20260508080433 | 41 | 133 | 0.0 | 0.0 | 0.00 | 0.10 | 0.00 | 93 | 1012.9 |
| 20260508074934 | 41 | 132 | 0.0 | 0.0 | 0.00 | 0.10 | 0.00 | 93 | 1013.0 |
| 20260508073434 | 41 | 133 | 0.0 | 0.0 | 0.00 | 0.10 | 0.00 | 93 | 1013.1 |
| 20260508071934 | 41 | 133 | 0.0 | 0.0 | 0.00 | 0.10 | 0.00 | 93 | 1013.0 |
| 20260508070433 | 42 | 133 | 0.0 | 0.0 | 0.00 | 0.10 | 0.00 | 93 | 1013.1 |
| 20260508064933 | 41 | 133 | 0.0 | 0.0 | 0.00 | 0.10 | 0.00 | 93 | 1013.2 |
| 20260508063433 | 42 | 133 | 0.0 | 0.9 | 0.00 | 0.10 | 0.00 | 93 | 1013.1 |
| 20260508061934 | 42 | 133 | 0.0 | 1.7 | 0.00 | 0.10 | 0.00 | 93 | 1013.2 |
| 20260508060454 | 42 | 133 | 0.0 | 1.7 | 0.00 | 0.10 | 0.00 | 93 | 1013.3 |
| 20260508054933 | 42 | 158 | 0.0 | 1.7 | 0.00 | 0.10 | 0.00 | 93 | 1013.3 |
| 20260508053433 | 42 | 118 | 0.0 | 0.9 | 0.00 | 0.10 | 0.00 | 93 | 1013.5 |
| 20260508051954 | 42 | 118 | 0.0 | 1.7 | 0.00 | 0.10 | 0.00 | 93 | 1013.5 |
| 20260508050433 | 42 | 118 | 0.0 | 1.7 | 0.00 | 0.10 | 0.00 | 93 | 1013.4 |
| 20260508044933 | 42 | 162 | 0.0 | 0.9 | 0.00 | 0.10 | 0.00 | 93 | 1013.2 |